Location: *
(9.9772°S, 113.2358°E)
Time: 05:30:26
(UTC+00:00)

CZ-4B DEB - Pass Details

Date: 30 September 2022
Orbit: 839 x 860 km, 99.1° (Epoch: 07 December)

Event Time Altitude Azimuth Distance (km) Brightness Sun altitude
Rises 10:51:57 0° 157° (SSE) 3,406 7.2 -8.1°
Reaches altitude 10° 10:54:25 10° 151° (SSE) 2,465 6.4 -8.7°
Maximum altitude 10:59:39 46° 78° (ENE) 1,110 4.4 -10.0°
Drops below altitude 10° 11:04:49 10° 5° (N) 2,443 6.5 -11.2°
Sets 11:07:14 0° 360° (N) 3,373 7.3 -11.8°
